GW2049 Weather Reports


time (UTC)temp
F
wind
direction
speed
knots
gust
knots
rain 1hr
in
rain 24hr
in
rain mn
in
humidity
%
barometer
mb
20260506013852 53 247 0.0 0.0 0.00 0.13 0.13 99 1009.7
20260506013350 53 246 0.0 0.0 0.00 0.13 0.13 99 1009.7
20260506012846 53 238 0.0 0.0 0.00 0.13 0.13 99 1009.4
20260506012343 53 235 0.0 0.9 0.00 0.13 0.13 99 1009.4
20260506011840 54 246 0.0 0.9 0.00 0.13 0.13 99 1009.4
20260506011337 54 241 0.0 0.0 0.00 0.13 0.13 99 1009.4
20260506010834 54 241 0.0 0.0 0.00 0.13 0.13 99 1009.4
20260506010332 53 240 0.9 0.9 0.00 0.13 0.13 99 1009.0
20260506005829 53 278 0.0 0.9 0.00 0.13 0.13 99 1009.4
20260506005326 54 259 0.0 0.9 0.00 0.13 0.13 99 1009.4
20260506004822 54 265 0.0 0.0 0.00 0.13 0.13 98 1009.4
20260506004320 54 259 0.9 0.9 0.00 0.13 0.13 98 1009.4
20260506003815 54 284 0.0 0.9 0.00 0.13 0.13 97 1009.0
20260506003312 54 245 0.0 0.0 0.05 0.13 0.13 97 1009.4
20260506002808 54 264 0.0 0.0 0.12 0.13 0.13 96 1009.4
20260506002306 55 244 0.9 1.7 0.14 0.12 0.12 95 1009.4
20260506001801 55 252 0.9 0.9 0.12 0.11 0.11 94 1009.0
20260506001258 55 326 2.6 2.6 0.12 0.10 0.10 93 1009.0
20260506000755 55 247 0.9 0.9 0.07 0.09 0.09 93 1009.0
20260506000254 55 245 0.0 0.0 0.00 0.08 0.08 93 1009.0
20260505235749 56 24 2.6 2.6 0.00 0.08 0.08 94 1008.6
20260505235247 56 286 1.7 1.7 0.00 0.08 0.08 93 1008.6
20260505234743 56 243 1.7 1.7 0.00 0.08 0.08 93 1008.3
20260505234241 56 245 0.9 1.7 0.00 0.08 0.08 93 1008.6
20260505233737 56 340 4.3 6.1 0.00 0.08 0.08 93 1008.3
20260505233236 56 270 2.6 2.6 0.00 0.08 0.08 94 1008.3
20260505232732 56 307 0.9 0.9 0.00 0.08 0.08 95 1008.3
20260505232230 56 267 0.9 0.9 0.00 0.08 0.08 96 1008.6
20260505231726 57 328 4.3 4.3 0.00 0.08 0.08 95 1008.3
20260505231226 57 351 2.6 2.6 0.00 0.08 0.08 94 1008.3
20260505230723 58 289 0.9 0.9 0.00 0.08 0.08 93 1008.3
20260505230219 58 337 1.7 2.6 0.17 0.08 0.08 91 1007.9
20260505225716 59 325 4.3 6.1 0.19 0.07 0.07 88 1008.3
20260505225213 62 332 3.5 5.2 0.07 0.05 0.05 84 1008.3
20260505224708 63 315 7.8 11.3 0.00 0.04 0.04 76 1007.6
20260505224206 64 329 5.2 6.1 0.00 0.04 0.04 74 1007.3
20260505223704 65 2 6.1 7.8 0.00 0.04 0.04 73 1007.3
20260505223200 65 343 4.3 5.2 0.00 0.04 0.04 73 1007.3
20260505222656 65 310 3.5 5.2 0.00 0.04 0.04 72 1006.9
20260505222152 66 248 2.6 4.3 0.00 0.04 0.04 72 1006.9
20260505221650 67 350 5.2 7.0 0.00 0.04 0.04 70 1006.9
20260505221146 67 336 4.3 7.0 0.00 0.04 0.04 69 1006.9
20260505220643 67 308 0.9 0.9 0.00 0.04 0.04 68 1006.6
20260505220141 67 243 1.7 2.6 0.00 0.04 0.04 68 1006.6
20260505215638 68 346 4.3 6.1 0.00 0.04 0.04 68 1006.1
20260505215136 69 311 0.9 1.7 0.00 0.04 0.04 67 1006.1
20260505214634 70 334 4.3 5.2 0.00 0.04 0.04 64 1005.8
20260505214131 70 280 1.7 2.6 0.00 0.04 0.04 53 1006.1
20260505213629 71 205 3.5 4.3 0.00 0.04 0.04 53 1005.8
20260505213125 71 243 1.7 2.6 0.00 0.04 0.04 53 1005.8
20260505212621 71 256 2.6 2.6 0.00 0.04 0.04 53 1006.1
20260505212119 72 321 0.9 0.9 0.00 0.04 0.04 54 1005.8
20260505211615 72 211 0.9 1.7 0.00 0.04 0.04 53 1006.1
20260505211113 72 217 5.2 6.1 0.00 0.04 0.04 52 1005.8
20260505210609 72 209 4.3 7.0 0.00 0.04 0.04 52 1005.5
20260505210106 72 251 1.7 1.7 0.00 0.04 0.04 57 1005.8
20260505205604 72 263 1.7 1.7 0.00 0.04 0.04 59 1005.5
20260505205101 71 245 0.9 0.9 0.00 0.04 0.04 57 1005.5
20260505204558 71 253 1.7 2.6 0.00 0.04 0.04 63 1005.5
20260505204056 70 246 1.7 1.7 0.00 0.04 0.04 64 1005.8
20260505203552 70 295 1.7 1.7 0.00 0.04 0.04 66 1005.5
20260505203049 70 277 0.9 1.7 0.00 0.04 0.04 67 1005.8
20260505202545 69 351 1.7 1.7 0.00 0.04 0.04 68 1005.8
20260505202041 69 338 4.3 5.2 0.00 0.04 0.04 67 1005.8
20260505201538 68 303 1.7 1.7 0.00 0.04 0.04 67 1005.8
20260505201036 69 322 2.6 4.3 0.00 0.04 0.04 67 1005.8
20260505200534 69 311 1.7 4.3 0.00 0.04 0.04 67 1006.1
20260505200030 69 244 0.0 0.9 0.00 0.04 0.04 66 1006.1
20260505195526 71 263 1.7 1.7 0.00 0.04 0.04 62 1006.1
20260505195024 70 206 1.7 2.6 0.00 0.04 0.04 62 1006.6
20260505194521 70 237 1.7 1.7 0.00 0.04 0.04 61 1006.6
20260505194016 69 263 0.0 0.9 0.00 0.04 0.04 63 1006.6
20260505193514 70 267 2.6 4.3 0.00 0.04 0.04 61 1006.9
20260505193011 71 262 2.6 2.6 0.00 0.04 0.04 56 1006.6
20260505192509 71 277 6.1 8.7 0.00 0.04 0.04 55 1005.8
20260505192007 72 223 3.5 5.2 0.00 0.04 0.04 57 1005.8
20260505191505 71 287 2.6 5.2 0.00 0.04 0.04 56 1005.8
20260505191002 71 174 4.3 6.1 0.00 0.04 0.04 57 1006.1
20260505190457 71 233 1.7 1.7 0.00 0.04 0.04 58 1005.8
20260505185952 71 255 7.0 11.3 0.00 0.04 0.04 58 1005.8
20260505185450 71 243 6.1 7.8 0.00 0.04 0.04 58 1006.1
20260505184946 71 205 4.3 5.2 0.00 0.04 0.04 58 1005.8
20260505184443 71 248 3.5 4.3 0.00 0.04 0.04 58 1006.1
20260505183939 71 263 2.6 4.3 0.00 0.04 0.04 58 1005.8
20260505183437 71 215 1.7 1.7 0.00 0.04 0.04 58 1006.1
20260505182933 71 267 0.0 0.0 0.00 0.04 0.04 58 1006.1
20260505182430 71 202 3.5 4.3 0.00 0.04 0.04 57 1005.8
20260505181926 71 212 2.6 2.6 0.00 0.04 0.04 57 1006.1
20260505181424 71 240 2.6 4.3 0.00 0.04 0.04 58 1006.1
20260505180921 72 193 3.5 5.2 0.00 0.04 0.04 56 1005.8
20260505180417 73 195 1.7 2.6 0.00 0.04 0.04 57 1005.8
20260505175914 74 217 3.5 5.2 0.00 0.04 0.04 61 1005.5
20260505175410 71 242 3.5 5.2 0.00 0.04 0.04 66 1005.5
20260505174906 70 237 2.6 2.6 0.00 0.04 0.04 65 1005.5
20260505174404 71 228 2.6 4.3 0.00 0.04 0.04 64 1005.5
20260505173900 69 254 0.0 0.0 0.00 0.04 0.04 68 1005.8
20260505173356 68 241 0.9 1.7 0.00 0.04 0.04 69 1006.1
20260505172854 67 230 0.9 0.9 0.00 0.04 0.04 75 1006.1
20260505172352 65 231 0.9 0.9 0.00 0.04 0.04 76 1006.6
20260505171851 64 218 4.3 5.2 0.05 0.04 0.04 76 1006.6
20260505171348 64 217 1.7 1.7 0.05 0.04 0.04 77 1006.6
20260505170844 64 241 0.0 0.9 0.00 0.03 0.03 79 1006.6
20260505170342 64 247 0.9 1.7 0.00 0.03 0.03 79 1006.6
20260505165837 64 265 3.5 4.3 0.00 0.03 0.03 76 1006.9
20260505165332 65 310 2.6 4.3 0.00 0.03 0.03 74 1006.9
20260505164828 68 328 1.7 1.7 0.00 0.03 0.03 72 1006.6
20260505164325 70 272 0.9 1.7 0.00 0.03 0.03 61 1006.6
20260505163824 70 252 1.7 1.7 0.00 0.03 0.03 57 1006.1
20260505163322 70 120 1.7 1.7 0.00 0.03 0.03 57 1005.8
20260505162820 70 256 3.5 5.2 0.00 0.03 0.03 57 1006.1
20260505162316 70 238 1.7 2.6 0.00 0.03 0.03 58 1005.8
20260505161813 71 260 2.6 2.6 0.00 0.03 0.03 58 1006.1
20260505161310 71 239 2.6 4.3 0.00 0.03 0.03 57 1005.8
20260505160808 71 210 3.5 7.0 0.00 0.03 0.03 55 1006.1
20260505160306 71 227 0.9 1.7 0.00 0.03 0.03 57 1006.1
20260505153244 70 214 3.5 4.3 0.00 0.03 0.03 59 1005.8
20260505152742 70 205 1.7 1.7 0.00 0.03 0.03 58 1005.5
20260505152238 69 264 1.7 1.7 0.00 0.03 0.03 59 1005.5
20260505151732 69 213 2.6 4.3 0.00 0.03 0.03 59 1005.5
20260505151230 69 252 2.6 5.2 0.00 0.03 0.03 60 1005.8
20260505150726 69 212 5.2 7.8 0.00 0.03 0.03 59 1005.8
20260505150223 69 196 3.5 4.3 0.00 0.03 0.03 59 1006.1
20260505140651 70 221 3.5 4.3 0.00 0.03 0.03 61 1005.5
20260505140148 69 260 2.6 2.6 0.00 0.03 0.03 61 1005.5
20260505130112 68 195 5.2 7.8 0.00 0.03 0.03 66 1005.5
20260505124601 68 208 4.3 7.0 0.00 0.03 0.03 65 1005.5
20260505124057 67 221 6.1 8.7 0.00 0.03 0.03 65 1005.5
20260505123554 68 219 1.7 4.3 0.00 0.03 0.03 65 1005.5
20260505123050 68 264 1.7 2.6 0.00 0.03 0.03 65 1005.5
20260505122547 67 159 3.5 7.0 0.00 0.03 0.03 65 1005.1
20260505122044 67 244 6.1 7.0 0.00 0.03 0.03 65 1005.5
20260505121541 66 209 4.3 7.0 0.00 0.03 0.03 68 1005.5
20260505121038 66 212 3.5 5.2 0.00 0.03 0.03 67 1005.5
20260505120534 65 225 5.2 6.1 0.00 0.03 0.03 69 1005.5
20260505120030 64 242 5.2 8.7 0.00 0.03 0.03 70 1005.5
20260505115524 64 183 4.3 6.1 0.00 0.03 0.03 71 1005.5
20260505115022 65 196 2.6 2.6 0.00 0.03 0.03 72 1005.8
20260505114519 64 206 1.7 1.7 0.00 0.03 0.03 73 1006.1
20260505114015 63 204 1.7 1.7 0.00 0.03 0.03 75 1005.5
20260505113512 62 223 0.9 0.9 0.00 0.03 0.03 77 1005.8
20260505113008 62 221 0.0 0.9 0.00 0.03 0.03 78 1005.8
20260505112504 61 221 1.7 1.7 0.00 0.03 0.03 78 1005.5
20260505112002 61 223 2.6 2.6 0.00 0.03 0.03 78 1005.5
20260505111456 61 228 1.7 1.7 0.00 0.03 0.03 78 1005.5
20260505110953 61 216 3.5 5.2 0.00 0.03 0.03 78 1005.5
20260505110449 61 194 1.7 1.7 0.00 0.03 0.03 79 1005.5
20260505101920 59 238 3.5 4.3 0.00 0.03 0.03 83 1005.1
20260505101415 59 219 1.7 1.7 0.00 0.03 0.03 84 1004.8
20260505100911 59 224 2.6 2.6 0.00 0.03 0.03 83 1004.8
20260505100408 59 212 0.9 0.9 0.00 0.03 0.03 84 1004.8
20260505095903 59 246 1.7 1.7 0.00 0.03 0.03 84 1004.8
20260505095401 58 186 0.9 1.7 0.00 0.03 0.03 85 1005.1
20260505094857 58 242 0.9 1.7 0.00 0.03 0.03 86 1005.1
20260505094354 58 217 2.6 2.6 0.00 0.03 0.03 86 1004.8
20260505093849 59 213 2.6 2.6 0.00 0.03 0.03 86 1004.8
20260505093347 58 239 1.7 1.7 0.00 0.03 0.03 86 1004.8
20260505092844 58 196 0.9 1.7 0.00 0.03 0.03 86 1004.8
20260505092342 58 201 3.5 4.3 0.00 0.03 0.03 86 1004.8
20260505091839 59 222 0.9 0.9 0.00 0.03 0.03 86 1004.8
20260505091337 59 236 0.9 0.9 0.00 0.03 0.03 85 1005.1
20260505090835 59 210 0.9 1.7 0.00 0.03 0.03 85 1005.1
20260505090333 59 238 1.7 2.6 0.00 0.03 0.03 85 1004.8
20260505085830 59 214 1.7 2.6 0.00 0.03 0.03 84 1005.1
20260505085328 59 55 1.7 2.6 0.00 0.03 0.03 84 1004.8
20260505084825 60 221 0.0 0.9 0.00 0.03 0.03 84 1005.1
20260505084324 60 233 4.3 5.2 0.00 0.03 0.03 83 1005.1
20260505083820 60 189 6.1 7.8 0.07 0.03 0.03 83 1005.5
20260505083318 60 240 3.5 5.2 0.07 0.03 0.03 83 1005.5
20260505082814 59 102 2.6 4.3 0.00 0.02 0.02 80 1005.5
20260505082311 56 231 0.9 1.7 0.00 0.02 0.02 90 1005.5
20260505081807 53 209 2.6 2.6 0.00 0.02 0.02 99 1005.5
20260505081304 52 233 0.0 0.0 0.00 0.02 0.02 99 1005.1
20260505080801 52 242 0.0 0.0 0.00 0.02 0.02 99 1005.1
20260505080256 52 244 0.0 0.0 0.00 0.02 0.02 99 1004.8
20260505075752 51 245 0.0 0.0 0.00 0.02 0.02 99 1004.8
20260505075250 51 252 0.0 0.0 0.00 0.02 0.02 99 1005.1
20260505074747 51 254 0.0 0.0 0.00 0.02 0.02 99 1005.1
20260505074244 52 244 0.0 0.0 0.00 0.02 0.02 99 1004.8
20260505073741 52 243 0.0 0.0 0.00 0.02 0.02 99 1004.8
20260505073239 52 242 0.9 0.9 0.00 0.02 0.02 99 1005.1
20260505072735 52 246 0.0 0.0 0.00 0.02 0.02 99 1005.1
20260505072232 52 244 0.0 0.0 0.00 0.02 0.02 99 1005.1
20260505071727 53 250 0.0 0.0 0.00 0.02 0.02 99 1004.8
20260505071224 53 242 0.0 0.0 0.00 0.02 0.02 99 1005.1
20260505070722 53 238 0.0 0.0 0.00 0.02 0.02 99 1004.8
20260505070218 53 246 0.0 0.0 0.00 0.02 0.02 99 1005.1
20260505065714 53 285 0.0 0.0 0.00 0.02 0.02 99 1004.8
20260505065211 54 262 0.9 0.9 0.00 0.02 0.02 99 1005.1
20260505064708 54 324 0.0 0.0 0.00 0.02 0.02 99 1004.8
20260505064206 54 226 0.0 0.0 0.00 0.02 0.02 99 1004.8
20260505063703 54 223 0.0 0.0 0.00 0.02 0.02 99 1005.1
20260505063159 53 303 0.9 0.9 0.00 0.02 0.02 99 1005.5
20260505062655 53 338 1.7 2.6 0.00 0.02 0.02 99 1005.5
20260505062153 53 302 0.9 0.9 0.00 0.02 0.02 99 1005.1
20260505061650 53 249 0.0 0.0 0.00 0.02 0.02 99 1005.1
20260505061148 53 249 0.9 1.7 0.00 0.02 0.02 99 1005.1
20260505060645 53 236 0.0 0.9 0.12 0.02 0.02 99 1005.1
20260505060142 53 236 0.9 0.9 0.12 0.02 0.02 99 1005.1
20260505055637 53 222 0.9 0.9 0.00 0.00 0.00 99 1005.5
20260505055134 52 244 0.0 0.9 0.00 0.00 0.00 99 1005.5
20260505054632 52 252 0.0 0.0 0.00 0.00 0.00 99 1005.1
20260505054130 52 253 0.0 0.0 0.00 0.00 0.00 99 1005.1
20260505053627 52 237 0.0 0.0 0.00 0.00 0.00 99 1005.5
20260505053123 52 241 0.0 0.0 0.00 0.00 0.00 99 1005.5
20260505052620 52 237 0.0 0.0 0.00 0.00 0.00 99 1005.5
20260505052117 52 244 0.0 0.0 0.00 0.00 0.00 99 1005.5
20260505051614 52 243 0.0 0.0 0.00 0.00 0.00 99 1005.8
20260505051112 52 244 0.0 0.0 0.00 0.00 0.00 99 1005.5
20260505050610 53 241 0.0 0.0 0.00 0.00 0.00 99 1005.5
20260505050108 53 243 0.0 0.0 0.00 0.00 0.00 99 1005.8
20260505041538 56 249 0.0 0.0 0.00 0.00 0.00 95 1006.1
20260505041035 57 241 0.0 0.0 0.00 0.00 0.00 93 1006.1
20260505040532 58 267 0.9 0.9 0.05 0.00 0.00 90 1006.1
20260505040029 59 240 0.0 0.9 0.12 0.02 0.02 87 1006.6
20260505035525 59 315 2.6 5.2 0.07 0.01 0.01 84 1006.6
20260505035022 59 246 1.7 1.7 0.00 0.00 0.00 83 1006.6
20260505034519 59 264 0.9 0.9 0.00 0.00 0.00 84 1006.1
20260505034016 60 284 1.7 1.7 0.00 0.00 0.00 81 1005.8
20260505033513 61 238 0.0 0.0 0.00 0.00 0.00 77 1005.5
20260505033011 62 209 0.9 1.7 0.00 0.00 0.00 75 1005.8
20260505032508 63 292 2.6 2.6 0.00 0.00 0.00 68 1006.6
20260505032004 64 242 0.9 0.9 0.00 0.00 0.00 64 1005.8
20260505031501 64 239 0.9 0.9 0.00 0.00 0.00 62 1005.8
20260505030958 63 234 0.9 0.9 0.00 0.00 0.00 61 1005.8
20260505030455 63 220 0.9 1.7 0.00 0.00 0.00 60 1005.8
20260505025949 60 241 0.9 0.9 0.00 0.00 0.00 64 1005.5
20260505025447 60 233 0.0 0.9 0.00 0.00 0.00 62 1005.5
20260505024946 60 235 0.0 0.0 0.00 0.00 0.00 65 1005.5
20260505024443 60 236 0.0 0.0 0.00 0.00 0.00 62 1005.5
20260505023940 60 238 0.0 0.0 0.00 0.00 0.00 62 1005.5
20260505023437 60 232 0.9 0.9 0.00 0.00 0.00 62 1005.5
20260505022934 60 229 0.9 0.9 0.00 0.00 0.00 62 1005.5
20260505022432 60 230 0.9 0.9 0.00 0.00 0.00 61 1005.5
20260505021928 60 235 0.0 0.0 0.00 0.00 0.00 61 1005.5
20260505021425 60 242 0.0 0.9 0.00 0.00 0.00 60 1005.5
20260505020921 59 234 0.9 0.9 0.00 0.00 0.00 61 1005.5
20260505020416 59 234 0.0 0.0 0.00 0.00 0.00 64 1005.5
20260505015914 59 235 0.0 0.0 0.00 0.00 0.00 63 1005.8
20260505015411 59 239 0.0 0.0 0.00 0.00 0.00 63 1005.8
20260505014908 60 233 0.9 0.9 0.00 0.00 0.00 62 1005.5
20260505014405 60 236 0.0 0.0 0.00 0.00 0.00 59 1005.5